Retour au catalogue

STARLINK-30837

ActifCommunicationsVLEO
NORAD 58212·PAYLOAD·🇺🇸 United States

Lancé Nov 3, 2023 depuis Cape Canaveral Space Force Station

Loading…

Prochains Passages (prochaines 24 heures)

TLE

FraisSource: CelesTrak SupGP

Époque: Sep 15, 2026, 02:36 UTC

1 58212C 23170G   26258.10881944 -.00053242  00000+0 -19289-2 0  2585
2 58212  43.0028 204.9007 0001312 270.9992  89.9718 15.27597400    17

Suivez STARLINK-30837 en temps réel avec AllMySat

Download on the App Store